Theta_e
304 304 303 302 302 302 303 303 305 306 307 307 309 307 307 308 313 314 314 319 319 322
301 300 300 300 301 303 303 303 304 304 305 305 306 306 306 308 308 307 309 312 317 318
298 298 299 300 299 299 300 301 301 301 303 305 307 307 307 308 309 308 308 310 313 317
297 299 299 298 299 300 300 301 301 302 303 304 305 307 307 308 309 309 310 311 313 314
298 297 296 297 298 299 299 300 301 302 303 304 305 306 306 307 309 310 312 313 311 315
296 295 296 297 298 299 300 300 301 302 302 303 305 306 307 308 309 310 310 311 314 315
294 295 296 297 299 299 300 300 301 302 303 304 305 306 307 308 309 310 311 313 314 313
295 296 297 298 298 299 299 299 300 300 301 304 307 307 307 309 309 310 311 313 313 314
295 297 297 298 298 297 297 297 298 298 299 299 301 301 303 310 309 311 309 307 307 309
295 296 296 297 296 296 295 296 296 296 297 297 299 300 302 306 305 303 303 303 304 304
294 294 295 296 295 295 295 295 295 295 296 297 298 299 299 301 301 300 300 300 301 301
293 293 294 293 294 295 295 295 295 296 296 295 296 297 298 300 299 299 299 300 300 300
293 293 293 293 294 295 295 295 296 295 296 297 296 296 296 300 300 299 299 299 298 298
293 293 293 293 294 294 295 295 295 295 295 294 295 296 295 296 297 298 296 295 295 295
Wind_Speed
11 9 10 11 11 11 11 10 12 12 15 15 10 9 11 8 8 7 7 10 5 5
10 13 12 14 12 11 12 12 13 14 16 17 16 12 12 10 10 7 8 9 7 5
12 13 13 13 15 15 14 15 15 14 15 15 13 11 12 10 11 8 8 8 10 8
13 14 13 13 14 15 16 15 15 15 15 14 14 13 12 12 12 11 10 10 9 8
14 15 15 15 15 16 16 15 16 15 15 15 15 13 13 13 11 11 10 10 8 11
15 15 15 16 16 15 15 15 15 14 15 14 14 14 13 13 12 11 10 9 8 7
15 16 15 15 15 14 14 14 13 12 13 14 14 14 13 12 11 11 10 7 7 9
15 15 14 14 14 13 13 12 12 12 11 12 9 9 11 11 10 8 6 6 5 6
14 14 13 13 13 13 13 13 12 12 12 11 9 19 10 8 6 5 5 4 4 6
14 14 13 13 13 13 13 13 13 13 12 13 15 22 9 10 6 8 7 5 5 7
13 13 13 12 13 13 11 12 12 13 13 13 14 24 19 19 12 11 11 10 9 9
13 12 12 12 13 11 11 11 12 11 13 13 15 25 21 15 12 14 13 11 11 10
11 11 11 11 12 10 10 11 10 12 14 20 16 26 28 14 9 12 10 10 10 18
10 10 10 9 9 9 10 12 13 13 13 15 18 20 25 22 11 8 8 8 7 6
Wind_Direction
296 291 293 292 298 292 287 284 286 284 285 280 265 277 273 266 261 260 279 272 231 247
303 307 302 301 297 298 297 299 293 298 294 281 274 264 261 260 248 245 255 264 258 245
314 307 304 299 307 301 295 290 289 283 279 277 275 263 259 262 265 241 248 251 252 250
310 311 316 307 304 303 298 294 288 283 278 278 276 268 261 257 258 254 247 236 232 249
317 323 323 311 306 302 298 295 290 285 279 274 269 263 257 254 252 256 255 239 236 242
327 323 315 311 307 305 302 298 292 286 278 273 267 259 250 249 245 244 245 247 256 262
325 318 314 313 319 318 315 310 307 298 288 278 268 258 250 239 240 233 237 234 240 247
318 315 319 327 327 327 329 328 324 322 320 320 283 252 240 227 225 227 220 225 241 252
323 328 335 335 336 339 341 341 340 346 347 349 347 327 288 194 199 194 163 118 70 59
333 337 342 341 345 349 349 347 354 360 1 8 4 355 152 106 82 92 79 73 85 84
337 343 344 348 353 355 354 0 5 5 11 20 21 30 54 76 79 74 64 57 52 73
341 345 347 356 358 356 2 10 16 14 18 27 30 37 42 62 69 70 64 61 52 54
342 347 350 357 1 2 12 18 20 25 26 30 38 37 37 45 65 72 66 56 48 42
349 352 353 355 3 7 18 23 26 25 28 32 34 38 42 36 41 45 55 49 37 29